CW3422 Weather Reports


time (UTC)temp
C
wind
direction
speed
KPH
gust
KPH
rain 1hr
cm
rain 24hr
cm
rain mn
cm
humidity
%
barometer
mb
20200218211204 13 172 1.6 8.0 0.00 0.00 0.00 80 1016.5
20200218210205 13 168 3.2 8.0 0.00 0.00 0.00 79 1016.6
20200218204704 13 127 1.6 4.8 0.00 0.00 0.00 78 1016.8
20200218204206 14 203 1.6 4.8 0.00 0.00 0.00 79 1016.9
20200218203705 13 182 3.2 9.7 0.00 0.00 0.00 79 1017.0
20200218201704 15 146 3.2 4.8 0.00 0.00 0.00 77 1017.3
20200218201204 15 189 1.6 4.8 0.00 0.00 0.00 78 1017.4
20200218200704 15 121 1.6 11.3 0.00 0.00 0.00 79 1017.6
20200218200205 15 161 4.8 12.9 0.00 0.00 0.00 78 1017.5
20200218194205 15 215 3.2 4.8 0.00 0.00 0.00 78 1017.9
20200218193704 15 144 1.6 9.7 0.00 0.00 0.00 80 1018.0
20200218193205 15 147 3.2 8.0 0.00 0.00 0.00 77 1018.0
20200218191204 15 100 3.2 9.7 0.00 0.00 0.00 76 1018.1
20200218190204 15 155 1.6 9.7 0.00 0.00 0.00 75 1018.4
20200218184704 15 143 1.6 12.9 0.00 0.00 0.00 74 1018.6
20200218183705 16 283 3.2 8.0 0.00 0.00 0.00 70 1018.8
20200218183204 16 218 1.6 14.5 0.00 0.00 0.00 72 1019.0
20200218181704 16 175 3.2 11.3 0.00 0.00 0.00 76 1019.3
20200218181204 15 186 3.2 16.1 0.00 0.00 0.00 77 1019.6
20200218180704 15 134 6.4 12.9 0.00 0.00 0.00 77 1019.7
20200218180204 16 165 1.6 11.3 0.00 0.00 0.00 77 1019.8
20200218174204 15 123 4.8 16.1 0.00 0.00 0.00 78 1020.3
20200218173704 15 200 1.6 14.5 0.00 0.00 0.00 79 1020.3
20200218173204 15 147 4.8 12.9 0.00 0.00 0.00 77 1020.4
20200218171204 15 179 3.2 8.0 0.00 0.00 0.00 78 1021.0
20200218170205 15 170 4.8 9.7 0.00 0.00 0.00 78 1021.4
20200218164704 14 120 4.8 11.3 0.00 0.00 0.00 78 1021.6
20200218163704 15 82 3.2 8.0 0.00 0.00 0.00 79 1021.8
20200218163204 14 114 4.8 14.5 0.00 0.00 0.00 79 1021.9
20200218161704 15 94 3.2 8.0 0.00 0.00 0.00 78 1022.3
20200218161204 14 156 3.2 8.0 0.00 0.00 0.00 79 1022.4
20200218160704 13 96 3.2 9.7 0.00 0.00 0.00 80 1022.4
20200218160204 13 116 4.8 12.9 0.00 0.00 0.00 79 1022.6
20200218153704 13 86 4.8 11.3 0.00 0.00 0.00 79 1022.8
20200218151204 13 131 6.4 16.1 0.00 0.00 0.00 78 1023.3
20200218150704 13 215 3.2 11.3 0.00 0.00 0.00 79 1023.4
20200218150205 13 113 4.8 16.1 0.00 0.00 0.00 78 1023.2
20200218144205 11 106 4.8 14.5 0.00 0.00 0.00 80 1023.5
20200218143704 11 96 4.8 14.5 0.00 0.00 0.00 81 1023.6
20200218141704 10 87 3.2 11.3 0.00 0.00 0.00 80 1024.0
20200218141204 10 82 4.8 9.7 0.00 0.00 0.00 80 1024.1
20200218140204 10 76 3.2 12.9 0.00 0.00 0.00 78 1023.9
20200218134703 10 78 3.2 8.0 0.00 0.00 0.00 79 1023.9
20200218133704 10 93 1.6 4.8 0.00 0.00 0.00 82 1024.0
20200218133205 10 85 3.2 8.0 0.00 0.00 0.00 82 1023.9
20200218131704 8 64 1.6 4.8 0.00 0.00 0.00 86 1024.1
20200218131205 8 71 1.6 4.8 0.00 0.00 0.00 87 1024.3
20200218130704 8 82 1.6 3.2 0.00 0.00 0.00 87 1024.5
20200218130204 7 83 1.6 4.8 0.00 0.00 0.00 88 1024.5
20200218124704 7 108 1.6 4.8 0.00 0.00 0.00 89 1024.1
20200218124204 7 76 1.6 8.0 0.00 0.00 0.00 89 1024.1
20200218123706 7 75 3.2 4.8 0.00 0.00 0.00 89 1024.3
20200218123205 7 77 1.6 9.7 0.00 0.00 0.00 89 1024.3
20200218120204 6 67 3.2 11.3 0.00 0.00 0.00 89 1024.9
20200218114704 6 56 1.6 4.8 0.00 0.00 0.00 89 1024.7
20200218114204 6 64 4.8 8.0 0.00 0.00 0.00 89 1024.9
20200218113204 6 67 3.2 8.0 0.00 0.00 0.00 89 1024.9
20200218111704 6 88 1.6 4.8 0.00 0.00 0.00 88 1024.9
20200218110704 6 59 3.2 9.7 0.00 0.00 0.00 88 1024.8
20200218110204 6 57 3.2 12.9 0.00 0.00 0.00 88 1024.7
20200218104205 6 61 4.8 9.7 0.00 0.00 0.00 87 1024.5
20200218103704 6 97 3.2 8.0 0.00 0.00 0.00 87 1024.7
20200218101704 6 68 3.2 9.7 0.00 0.00 0.00 87 1024.6
20200218101203 6 75 1.6 4.8 0.00 0.00 0.00 86 1024.6
20200218100704 6 69 1.6 8.0 0.00 0.00 0.00 86 1024.6
20200218100204 6 86 3.2 8.0 0.00 0.00 0.00 86 1024.8
20200218094704 6 60 1.6 4.8 0.00 0.00 0.00 86 1025.4
20200218094204 6 84 3.2 8.0 0.00 0.00 0.00 86 1025.4
20200218091204 6 67 3.2 8.0 0.00 0.00 0.00 87 1025.1
20200218090704 6 68 1.6 4.8 0.00 0.00 0.00 87 1025.0
20200218090204 5 69 3.2 4.8 0.00 0.00 0.00 87 1025.1
20200218084704 5 73 3.2 4.8 0.00 0.00 0.00 88 1025.4
20200218083703 5 54 0.0 4.8 0.00 0.00 0.00 88 1025.5
20200218083204 5 53 1.6 4.8 0.00 0.00 0.00 88 1025.5
20200218081704 5 53 1.6 3.2 0.00 0.00 0.00 89 1025.8
20200218080704 5 67 1.6 4.8 0.00 0.00 0.00 90 1025.7
20200218074205 5 38 1.6 4.8 0.00 0.00 0.00 91 1025.8
20200218073704 5 33 3.2 4.8 0.00 0.00 0.00 91 1025.8
20200218073204 5 57 1.6 4.8 0.00 0.00 0.00 92 1025.7
20200218071704 4 74 0.0 3.2 0.00 0.00 0.00 91 1025.8
20200218071204 4 75 1.6 3.2 0.00 0.00 0.00 92 1026.0
20200218070706 4 79 1.6 4.8 0.00 0.00 0.00 93 1026.0
20200218064205 2 41 1.6 4.8 0.00 0.00 0.00 96 1025.8
20200218063706 2 41 0.0 1.6 0.00 0.00 0.00 96 1026.0
20200218063206 1 41 0.0 1.6 0.00 0.00 0.00 95 1026.2
20200218061206 0 41 0.0 0.0 0.00 0.00 0.00 95 1026.3
20200218060706 0 41 0.0 0.0 0.00 0.00 0.00 94 1026.4
20200218060206 0 41 0.0 0.0 0.00 0.00 0.00 94 1026.5
20200218054706 0 41 0.0 0.0 0.00 0.00 0.00 94 1026.7
20200218054205 0 41 0.0 0.0 0.00 0.00 0.00 94 1026.7
20200218053205 0 41 0.0 0.0 0.00 0.00 0.00 94 1026.7
20200218051706 0 41 0.0 0.0 0.00 0.00 0.00 94 1026.8
20200218051206 0 41 0.0 0.0 0.00 0.00 0.00 94 1026.8
20200218050706 0 41 0.0 0.0 0.00 0.00 0.00 94 1026.9
20200218050206 0 41 0.0 0.0 0.00 0.00 0.00 94 1027.0
20200218044706 0 41 0.0 0.0 0.00 0.00 0.00 93 1027.0
20200218044206 0 41 0.0 0.0 0.00 0.00 0.00 93 1026.9
20200218043706 0 41 0.0 0.0 0.00 0.00 0.00 94 1026.9
20200218041706 0 41 0.0 0.0 0.00 0.00 0.00 93 1026.8
20200218040705 0 41 0.0 0.0 0.00 0.00 0.00 93 1026.8
20200218034706 0 41 0.0 0.0 0.00 0.00 0.00 93 1027.1
20200218033705 0 41 0.0 0.0 0.00 0.00 0.00 93 1027.1
20200218033206 0 41 0.0 0.0 0.00 0.00 0.00 92 1027.1
20200218031705 0 41 0.0 0.0 0.00 0.00 0.00 93 1027.2
20200218031206 1 41 0.0 0.0 0.00 0.00 0.00 93 1027.2
20200218024705 1 41 0.0 0.0 0.00 0.00 0.00 92 1026.9
20200218024206 1 41 0.0 0.0 0.00 0.00 0.00 92 1027.0
20200218023205 1 41 0.0 0.0 0.00 0.00 0.00 92 1027.2
20200218021706 1 41 0.0 0.0 0.00 0.00 0.00 92 1027.4
20200218021206 1 41 0.0 0.0 0.00 0.00 0.00 91 1027.4
20200218020706 1 41 0.0 0.0 0.00 0.00 0.00 91 1027.4
20200218020207 1 41 0.0 1.6 0.00 0.00 0.00 92 1027.2
20200218014705 1 41 0.0 0.0 0.00 0.00 0.00 91 1026.8
20200218014205 1 41 0.0 0.0 0.00 0.00 0.00 91 1026.6
20200218013706 1 41 0.0 0.0 0.00 0.00 0.00 90 1026.6
20200218013206 1 41 0.0 0.0 0.00 0.00 0.00 90 1026.7
20200218011705 1 41 0.0 0.0 0.00 0.00 0.00 90 1026.7
20200218011205 1 41 0.0 0.0 0.00 0.00 0.00 89 1026.7
20200218010706 1 41 0.0 0.0 0.00 0.00 0.00 89 1026.7
20200218010205 1 41 0.0 0.0 0.00 0.00 0.00 88 1026.8
20200218004707 1 41 0.0 0.0 0.00 0.00 0.00 87 1027.0
20200218004206 2 41 0.0 0.0 0.00 0.00 0.00 86 1027.0
20200218003705 2 41 0.0 0.0 0.00 0.00 0.00 86 1026.9
20200218003206 2 41 0.0 0.0 0.00 0.00 0.00 86 1027.0
20200218001705 2 41 0.0 0.0 0.00 0.00 0.00 86 1027.0
20200218001205 2 41 0.0 0.0 0.00 0.00 0.00 85 1026.9
20200218000705 2 41 0.0 0.0 0.00 0.00 0.00 85 1026.7
20200218000205 2 41 0.0 0.0 0.00 0.00 0.00 84 1026.7
20200217234706 3 41 0.0 0.0 0.00 0.00 0.00 82 1026.4
20200217234205 3 41 0.0 0.0 0.00 0.00 0.00 81 1026.3
20200217233705 3 41 0.0 0.0 0.00 0.00 0.00 80 1026.2
20200217233205 3 41 0.0 0.0 0.00 0.00 0.00 80 1026.1
20200217231706 5 41 0.0 0.0 0.00 0.00 0.00 76 1025.8
20200217230706 5 41 0.0 1.6 0.00 0.00 0.00 74 1025.7
20200217230205 5 41 0.0 3.2 0.00 0.00 0.00 73 1025.6
20200217224705 6 74 0.0 1.6 0.00 0.00 0.00 69 1025.6
20200217223206 6 74 1.6 4.8 0.00 0.00 0.00 66 1025.3
20200217220207 7 72 3.2 8.0 0.00 0.00 0.00 58 1025.2
20200217214205 7 71 1.6 4.8 0.00 0.00 0.00 53 1025.0
20200217213706 8 97 1.6 3.2 0.00 0.00 0.00 55 1025.1
20200217213205 8 96 1.6 4.8 0.00 0.00 0.00 56 1025.0
20200217211705 8 79 1.6 3.2 0.00 0.00 0.00 55 1025.1